Wind_Speed
19 18 17 16 15 15 13 11 10 10 8 7 6 5 4 3 2 2 2 2 3 4 4 3 3 3 3 4 5 6 5 4 4 3 4 5 5 5 5 5 5 5 5 4
21 21 19 18 17 16 15 13 12 12 10 9 7 7 6 4 4 4 4 4 4 4 4 4 4 4 4 5 6 6 5 5 5 4 5 6 6 6 6 5 5 6 6 6
22 22 20 19 19 18 17 15 15 14 12 11 10 9 7 6 6 6 5 5 5 5 5 5 6 5 5 6 6 6 6 6 6 5 6 6 6 6 6 5 5 6 7 8
25 23 21 21 20 19 18 17 17 16 13 12 11 9 9 7 7 7 7 6 6 6 6 7 7 6 6 6 6 7 7 6 6 6 6 7 7 6 6 6 7 8 9 10
25 24 23 22 21 20 20 19 18 16 15 14 12 10 10 9 8 7 7 7 6 6 6 7 6 6 6 6 6 7 7 7 7 7 7 8 7 7 8 8 8 9 9 10
26 25 24 24 22 22 20 19 18 17 16 16 14 11 10 10 8 8 8 7 6 5 6 6 5 6 6 7 7 7 7 8 8 8 8 8 8 8 9 10 10 10 10 10
26 26 25 24 23 22 21 19 18 17 18 17 15 14 13 11 9 8 8 7 7 6 6 5 5 6 7 7 8 8 8 8 9 9 9 9 9 9 9 11 11 11 10 9
26 26 26 25 24 23 22 21 19 17 16 15 17 15 14 13 11 10 9 8 8 7 7 7 7 7 8 8 8 9 10 9 9 9 9 9 9 9 10 10 11 11 10 10
27 26 26 25 24 23 23 23 21 19 18 16 16 16 15 14 13 12 11 10 10 9 9 9 9 9 9 9 9 10 10 9 9 9 9 9 10 10 11 11 11 10 10 10
27 27 26 25 25 25 24 23 22 21 19 16 16 15 15 15 13 13 13 12 11 11 10 10 9 10 10 10 11 11 10 10 10 10 10 10 11 11 11 11 11 12 11 11
27 27 26 26 26 25 25 24 23 21 20 17 15 16 16 15 14 14 13 12 12 11 11 10 10 11 11 11 12 11 12 12 12 12 12 12 11 12 12 12 12 12 12 12
28 27 26 27 26 26 25 24 23 21 21 19 16 16 17 16 16 15 15 14 13 13 12 12 12 12 13 13 13 13 13 13 13 13 13 13 12 12 12 12 12 13 13 13
28 28 27 27 27 27 26 25 24 22 21 20 18 17 18 17 17 16 16 16 14 14 14 14 14 14 14 13 14 14 14 14 14 14 13 13 13 13 13 13 13 13 13 13
28 28 26 25 25 26 26 25 24 23 22 21 20 19 19 18 17 17 17 16 15 15 15 15 15 15 14 14 14 15 15 15 14 14 14 14 14 14 14 14 13 13 13 13
28 28 28 26 26 26 25 24 24 24 22 21 20 20 19 19 18 18 18 17 16 16 16 15 15 15 15 15 15 15 16 16 16 16 16 16 16 16 15 15 15 14 14 14
28 28 27 27 27 26 25 25 24 24 23 22 21 21 21 21 20 20 19 18 17 16 16 16 15 15 15 15 16 17 17 16 17 18 18 18 17 16 16 16 16 15 15 14
29 28 27 26 27 27 27 26 25 24 23 22 22 22 21 21 21 20 20 19 18 18 18 18 17 16 16 17 17 17 17 17 18 18 18 17 17 17 17 17 17 16 15 15
29 29 27 26 27 27 27 26 25 25 24 23 22 21 21 21 21 21 21 21 20 20 20 19 19 19 19 19 19 19 18 18 18 17 17 17 17 17 16 16 16 16 15 15
30 29 29 27 26 27 28 27 25 25 24 23 22 21 21 21 21 21 21 22 22 22 21 21 20 19 20 20 20 19 19 19 18 18 18 18 17 17 16 16 16 17 16 16
30 30 30 29 26 26 27 27 26 25 25 24 23 21 20 20 20 20 21 22 22 22 21 21 21 20 20 20 20 20 21 20 19 19 19 19 18 17 17 17 17 18 18 18
31 32 31 29 28 27 27 26 26 26 25 24 24 23 22 22 21 21 21 21 21 21 21 22 21 21 21 21 21 21 21 21 20 20 19 19 18 18 19 19 19 19 19 19
33 33 32 31 29 28 27 26 26 25 26 25 24 24 24 23 22 21 21 21 21 21 22 22 22 22 21 21 21 21 21 21 21 20 20 19 20 20 20 20 20 20 20 21
34 34 33 32 32 30 28 27 25 25 25 25 24 24 24 23 23 22 22 21 21 22 22 23 23 23 22 22 22 22 21 21 21 21 20 20 20 21 21 21 21 21 22 22
34 34 34 34 33 31 30 28 27 26 25 25 25 25 24 24 24 24 23 23 22 23 23 23 24 24 24 23 22 22 21 22 22 22 21 21 21 22 22 22 22 22 22 23
34 34 34 34 33 32 30 30 29 28 26 26 26 26 25 26 25 24 24 24 24 25 24 24 24 25 25 24 23 23 23 23 24 24 23 23 23 23 23 24 24 24 24 24
34 34 34 34 33 32 31 30 30 29 28 27 27 26 26 26 26 25 25 25 26 26 25 25 25 25 25 25 25 24 23 23 24 24 24 24 23 24 24 24 25 25 25 25
Wind_Direction
214 214 214 211 209 211 210 212 218 221 218 213 216 226 236 259 281 296 322 333 338 344 350 345 337 335 325 321 321 320 318 314 313 313 323 325 325 326 331 331 321 321 324 314
215 215 215 215 214 215 215 217 221 224 222 222 226 231 237 248 270 282 297 317 329 331 332 332 324 323 325 322 319 319 317 311 308 314 323 324 324 321 322 326 331 323 320 314
217 217 216 217 217 217 219 219 224 226 225 229 231 234 241 250 265 277 287 303 311 312 314 319 318 308 320 323 320 318 312 314 313 317 326 327 324 321 324 327 318 320 314 314
219 217 217 218 218 218 221 221 224 225 225 234 226 234 244 252 261 269 278 287 294 296 300 303 311 306 307 316 317 314 309 310 314 319 323 327 319 319 320 318 317 315 314 316
219 218 218 218 218 219 221 222 224 225 226 231 231 228 247 251 259 263 270 278 283 288 296 304 305 304 305 309 311 311 310 309 309 311 318 317 315 314 317 316 317 317 318 320
220 219 219 219 219 220 222 222 224 225 228 232 231 230 245 251 252 257 265 267 274 283 290 298 299 299 306 306 306 307 306 307 308 308 313 312 312 313 314 316 316 316 317 316
220 220 220 219 219 220 220 221 226 229 231 234 235 236 242 242 243 251 260 264 269 282 283 287 299 302 306 310 307 305 304 303 305 305 308 308 308 310 312 314 315 315 315 314
220 221 220 218 219 220 219 220 221 226 235 235 238 238 241 239 240 247 256 264 269 274 280 285 291 299 301 304 305 303 303 300 300 300 305 309 307 307 309 310 314 313 312 313
217 221 220 219 219 220 220 219 220 223 227 230 241 241 240 239 245 250 255 259 264 271 276 280 285 292 294 297 301 302 299 296 297 301 304 303 303 303 303 304 310 314 311 311
216 220 220 219 220 220 221 221 221 221 226 232 241 245 242 240 241 245 249 257 261 266 271 277 285 290 289 292 296 297 294 294 295 298 297 297 297 299 303 304 305 308 308 308
216 219 221 220 220 222 221 221 222 225 227 229 238 246 242 236 238 242 247 255 260 264 266 272 279 286 287 290 289 289 289 290 291 292 292 294 297 298 300 301 302 305 305 307
215 216 221 221 221 221 222 223 224 227 230 227 230 244 244 238 238 242 246 252 257 261 264 267 275 284 285 285 285 285 285 287 285 285 286 288 293 295 298 299 300 301 303 307
214 215 218 221 222 221 222 222 224 227 231 232 232 242 246 243 240 244 248 251 255 259 262 266 272 280 283 285 284 283 284 287 284 280 281 285 288 289 292 295 296 299 300 303
215 216 215 221 225 225 223 224 226 228 231 235 233 237 245 245 244 244 248 250 252 256 260 266 271 277 281 285 286 283 282 282 281 280 281 281 282 284 287 289 291 296 299 301
215 217 217 218 223 225 225 226 227 230 231 234 238 239 241 244 243 243 245 247 249 253 258 264 270 275 278 281 282 283 283 282 281 279 281 280 280 283 285 288 288 292 297 299
215 217 218 220 222 224 225 226 229 232 234 235 238 242 240 241 243 243 243 245 247 252 257 261 265 268 273 277 278 280 282 285 284 281 278 278 279 282 284 288 290 293 295 298
216 217 218 222 223 226 228 229 231 234 236 238 240 242 242 241 244 245 246 246 247 251 255 259 261 264 270 275 278 277 281 285 283 283 278 278 280 281 285 287 288 290 292 294
217 216 218 222 225 228 231 232 234 236 237 237 239 241 242 241 242 244 245 245 247 250 255 258 258 262 268 271 274 275 278 281 282 283 281 281 280 283 284 283 285 287 290 292
217 217 219 223 228 231 234 233 235 237 237 237 238 240 241 241 242 244 244 245 245 248 252 253 256 261 266 269 271 274 276 276 278 279 278 280 281 280 279 280 282 284 287 289
217 219 221 223 225 232 235 234 236 238 239 238 239 238 238 239 241 243 243 244 245 245 247 251 256 262 267 270 273 274 275 277 278 279 278 278 277 277 277 279 282 284 284 287
218 220 222 225 228 232 234 234 235 236 237 238 238 237 238 239 239 241 242 243 241 242 245 251 257 264 268 272 275 274 274 275 276 277 275 273 274 275 277 280 282 285 284 285
218 221 223 225 228 233 234 233 234 236 237 238 238 238 238 238 238 239 239 240 239 242 247 252 258 264 269 272 274 275 273 271 272 274 273 272 273 274 276 277 281 284 283 284
220 221 223 226 229 231 233 233 234 235 236 237 237 239 239 238 238 239 239 240 242 244 248 252 256 261 266 271 273 273 272 271 270 271 273 275 275 274 276 280 282 283 284 285
222 223 226 228 229 232 233 234 235 234 235 237 238 238 239 239 239 240 240 240 243 247 251 253 257 261 265 269 270 269 268 267 267 269 272 273 275 275 276 278 281 283 283 283
223 224 227 230 231 232 234 235 235 235 236 237 238 238 238 239 239 240 241 242 245 249 251 254 258 261 265 266 267 269 268 267 267 269 270 271 272 274 275 277 279 282 282 282
225 226 227 229 230 232 233 233 234 236 238 238 238 237 237 237 240 241 243 244 246 248 250 254 258 261 263 264 265 267 267 266 266 268 269 269 271 273 276 277 278 279 281 282
Height
5900 5904 5907 5910 5913 5915 5917 5919 5920 5921 5921 5922 5923 5924 5924 5924 5923 5923 5923 5923 5922 5922 5921 5920 5920 5919 5918 5917 5917 5916 5915 5914 5913 5912 5912 5911 5910 5909 5908 5908 5907 5906 5905 5905
5898 5901 5904 5906 5909 5912 5914 5917 5918 5919 5920 5921 5922 5923 5923 5923 5923 5923 5923 5923 5922 5922 5921 5920 5919 5919 5918 5917 5916 5915 5914 5913 5912 5912 5911 5910 5909 5908 5907 5907 5906 5906 5905 5904
5894 5898 5900 5903 5906 5909 5911 5914 5916 5917 5919 5920 5921 5922 5923 5923 5923 5923 5922 5922 5921 5921 5920 5920 5919 5918 5917 5916 5915 5915 5914 5913 5912 5911 5910 5909 5908 5907 5907 5906 5906 5905 5904 5903
5888 5892 5896 5899 5902 5906 5909 5911 5913 5915 5917 5918 5920 5922 5922 5922 5922 5921 5921 5920 5920 5920 5919 5918 5917 5917 5916 5915 5914 5914 5913 5912 5911 5910 5910 5909 5908 5907 5906 5905 5905 5904 5903 5902
5884 5888 5892 5895 5899 5902 5905 5907 5910 5912 5915 5917 5918 5920 5922 5920 5920 5920 5920 5919 5919 5918 5918 5917 5916 5916 5915 5914 5913 5913 5912 5911 5910 5909 5909 5908 5907 5906 5905 5905 5904 5903 5902 5901
5880 5884 5888 5891 5895 5898 5901 5904 5907 5909 5912 5915 5916 5918 5920 5918 5918 5918 5918 5917 5918 5917 5917 5916 5915 5915 5914 5913 5912 5912 5911 5910 5909 5908 5907 5906 5906 5905 5904 5904 5902 5901 5900 5899
5875 5879 5883 5887 5890 5894 5898 5902 5905 5907 5910 5912 5913 5914 5917 5916 5916 5916 5916 5916 5916 5916 5916 5915 5915 5914 5913 5912 5911 5910 5910 5909 5908 5907 5906 5905 5904 5904 5903 5902 5901 5899 5898 5897
5871 5875 5878 5882 5886 5890 5894 5898 5903 5906 5908 5910 5909 5911 5913 5913 5914 5914 5914 5914 5914 5914 5914 5914 5913 5913 5912 5911 5910 5909 5908 5907 5907 5905 5904 5904 5903 5902 5901 5900 5899 5897 5896 5896
5867 5871 5874 5878 5882 5886 5889 5893 5897 5901 5903 5906 5907 5908 5909 5910 5911 5911 5912 5912 5912 5912 5912 5912 5912 5911 5910 5909 5908 5907 5906 5906 5905 5904 5903 5903 5901 5900 5900 5898 5897 5896 5894 5894
5861 5866 5869 5873 5877 5881 5885 5889 5892 5896 5899 5903 5904 5905 5906 5906 5907 5908 5909 5909 5910 5910 5910 5910 5910 5909 5908 5908 5907 5906 5905 5904 5903 5902 5901 5901 5900 5899 5898 5897 5896 5894 5893 5892
5856 5861 5865 5869 5872 5876 5881 5884 5888 5892 5895 5899 5902 5904 5901 5903 5904 5905 5906 5906 5907 5907 5908 5908 5907 5907 5906 5905 5905 5904 5903 5902 5901 5900 5899 5899 5898 5897 5896 5895 5893 5892 5891 5889
5851 5856 5860 5864 5868 5872 5876 5880 5884 5888 5890 5893 5897 5901 5897 5899 5900 5901 5902 5903 5904 5904 5905 5905 5905 5904 5904 5903 5902 5901 5900 5899 5898 5898 5897 5896 5895 5894 5893 5892 5891 5890 5888 5887
5846 5851 5856 5860 5865 5867 5870 5874 5878 5882 5885 5888 5892 5896 5893 5894 5896 5897 5898 5899 5900 5901 5901 5902 5902 5901 5901 5900 5899 5898 5897 5896 5895 5895 5894 5893 5892 5892 5891 5890 5888 5887 5886 5884
5841 5846 5853 5857 5859 5862 5866 5870 5873 5877 5880 5883 5886 5889 5889 5890 5891 5893 5894 5895 5896 5897 5897 5898 5898 5898 5897 5896 5896 5895 5894 5893 5892 5891 5891 5890 5890 5889 5888 5887 5886 5884 5883 5881
5836 5841 5846 5850 5853 5857 5861 5865 5868 5871 5875 5879 5881 5882 5884 5885 5886 5888 5889 5890 5892 5893 5893 5894 5894 5893 5893 5893 5892 5891 5889 5888 5888 5887 5887 5886 5886 5886 5885 5884 5883 5881 5879 5878
5831 5836 5840 5844 5848 5852 5855 5859 5862 5866 5869 5872 5874 5877 5878 5879 5881 5883 5884 5886 5887 5888 5889 5889 5889 5889 5889 5889 5888 5887 5886 5884 5884 5883 5883 5883 5882 5882 5881 5880 5879 5878 5876 5875
5826 5831 5836 5840 5843 5846 5850 5854 5857 5860 5863 5866 5868 5871 5873 5874 5876 5878 5879 5881 5882 5884 5884 5885 5885 5885 5885 5885 5884 5883 5882 5881 5880 5880 5879 5878 5878 5878 5877 5876 5875 5874 5873 5871
5821 5825 5830 5835 5838 5842 5847 5848 5851 5854 5857 5860 5862 5864 5867 5869 5871 5872 5874 5875 5877 5878 5879 5880 5880 5881 5880 5880 5879 5879 5878 5877 5876 5875 5874 5874 5874 5873 5872 5872 5871 5870 5869 5868
5815 5820 5825 5829 5832 5836 5839 5842 5846 5849 5851 5854 5856 5859 5861 5863 5865 5867 5868 5870 5871 5873 5874 5875 5875 5875 5875 5875 5875 5874 5873 5872 5871 5870 5870 5869 5869 5869 5868 5868 5867 5866 5865 5864
5809 5814 5819 5823 5827 5831 5834 5837 5840 5844 5846 5848 5851 5853 5856 5858 5860 5862 5863 5864 5865 5867 5868 5869 5870 5870 5870 5870 5870 5869 5868 5867 5866 5866 5865 5865 5865 5864 5864 5863 5862 5862 5861 5860
5803 5807 5811 5816 5820 5824 5827 5830 5834 5839 5841 5842 5845 5847 5850 5852 5854 5856 5857 5858 5860 5861 5862 5863 5864 5865 5865 5865 5864 5864 5863 5862 5862 5861 5860 5860 5860 5859 5859 5858 5858 5857 5856 5855
5796 5801 5805 5810 5814 5819 5820 5824 5828 5831 5833 5836 5839 5841 5843 5846 5848 5849 5851 5853 5854 5856 5857 5857 5858 5859 5859 5859 5859 5858 5857 5857 5856 5856 5855 5855 5855 5854 5854 5853 5853 5852 5851 5850
5789 5794 5798 5803 5808 5811 5814 5817 5821 5824 5827 5829 5832 5835 5837 5840 5842 5844 5845 5847 5848 5850 5850 5851 5852 5853 5853 5853 5853 5852 5852 5851 5851 5851 5850 5850 5849 5849 5849 5848 5847 5846 5846 5844
5782 5786 5791 5795 5800 5803 5807 5811 5814 5817 5820 5823 5825 5828 5831 5833 5835 5837 5839 5841 5842 5843 5844 5845 5846 5846 5846 5846 5846 5846 5846 5845 5845 5845 5844 5844 5844 5843 5843 5842 5841 5841 5840 5839
5774 5779 5783 5788 5792 5796 5800 5804 5807 5810 5813 5816 5818 5821 5824 5827 5829 5831 5833 5834 5836 5837 5838 5839 5839 5840 5839 5839 5839 5839 5839 5839 5839 5838 5838 5838 5837 5837 5837 5836 5835 5834 5834 5833
5767 5772 5776 5780 5785 5789 5793 5796 5800 5803 5806 5809 5812 5814 5817 5819 5822 5824 5826 5828 5829 5830 5831 5832 5832 5833 5833 5833 5832 5832 5832 5832 5832 5832 5832 5831 5831 5830 5830 5829 5829 5828 5827 5826